Hourly Data Report for December 18, 2018

TORONTO CITY
ONTARIO
Current Station Operator: ECCC - MSC

43°40'00.000" N
79°24'00.000" W
112.50 m
6158355
71508
XTO

Download Data

Hourly Data (December 2018)
Hourly Data Report for December 18, 2018
TIME
LST
Temp Definition
°C
Dew Point Definition
°C
Rel Hum Definition
%
Precip. Amount Definition
mm

Wind Dir Definition
10's deg

Wind Spd Definition
km/h
Visibility Definition
km
Stn Press Definition
kPa
Hmdx Definition


Wind Chill Definition


Weather Definition


00:00 -0.1 -5.9 65 0.0 LegendMM LegendMM   100.40     LegendNANA
01:00 -0.7 -6.7 64 0.0 LegendMM LegendMM   100.43     LegendNANA
02:00 -1.4 -7.4 64 0.0 LegendMM LegendMM   100.54     LegendNANA
03:00 -2.1 -8.0 64 0.0 LegendMM LegendMM   100.62     LegendNANA
04:00 -2.9 -8.5 65 0.0 LegendMM LegendMM   100.65     LegendNANA
05:00 -4.1 -9.2 68 0.0 LegendMM LegendMM   100.75     LegendNANA
06:00 -4.7 -10.1 66 0.0 LegendMM LegendMM   100.86     LegendNANA
07:00 -5.0 -10.4 66 0.0 LegendMM LegendMM   100.92     LegendNANA
08:00 -4.9 -10.6 64 0.0 LegendMM LegendMM   100.97     LegendNANA
09:00 -4.3 -10.4 62 0.0 LegendMM LegendMM   101.01     LegendNANA
10:00 -4.0 -10.6 60 0.0 LegendMM LegendMM   101.08     LegendNANA
11:00 -3.1 -10.8 56 0.0 LegendMM LegendMM   101.02     LegendNANA
12:00 -3.1 -11.0 55 0.0 LegendMM LegendMM   100.98     LegendNANA
13:00 -1.6 -10.2 52 0.0 LegendMM LegendMM   100.92     LegendNANA
14:00 -1.4 -9.6 54 0.0 LegendMM LegendMM   100.85     LegendNANA
15:00 -1.0 -9.1 54 0.0 LegendMM LegendMM   100.85     LegendNANA
16:00 -1.2 -7.5 63 0.0 LegendMM LegendMM   100.85     LegendNANA
17:00 -1.4 -7.2 65 0.0 LegendMM LegendMM   100.83     LegendNANA
18:00 -1.3 -6.5 68 0.0 LegendMM LegendMM   100.81     LegendNANA
19:00 -1.1 -5.8 71 0.0 LegendMM LegendMM   100.77     LegendNANA
20:00 -0.7 -5.3 71 0.0 LegendMM LegendMM   100.74     LegendNANA
21:00 -0.9 -5.7 70 0.0 LegendMM LegendMM   100.68     LegendNANA
22:00 -0.6 -6.1 66 0.0 LegendMM LegendMM   100.67     LegendNANA
23:00 -0.8 -5.6 70 0.0 LegendMM LegendMM   100.60     LegendNANA

Notes on Data Quality.

Legend

  • E = Estimated
  • M = Missing
  • NA = Not Available*
  • [empty] = Indicates an unobserved value
Date modified: